This is the latest recevied weather packets stored in our database for station/object N2OCK. If no packets are shown the sender has not sent any weather packets the latest 1 day(s).
| Time | Temp. | Humidity | Pressure | Rain* | Wind** | Luminosity | Snow |
|---|---|---|---|---|---|---|---|
| 1778038180 | 15.56° C | 82% | 1011.8 hPa | 0 mm | 1.79 m/s, 4° | 0 W/m² | - |
| 1778037878 | 15.56° C | 82% | 1012 hPa | 0 mm | 2.68 m/s, 257° | 0 W/m² | - |
| 1778037574 | 15.56° C | 82% | 1011.8 hPa | 0 mm | 1.34 m/s, 226° | 0 W/m² | - |
| 1778037271 | 15.56° C | 82% | 1011.8 hPa | 0 mm | 2.68 m/s, 242° | 0 W/m² | - |
| 1778036969 | 15.56° C | 82% | 1011.8 hPa | 0 mm | 1.34 m/s, 180° | 0 W/m² | - |
| 1778036667 | 15.56° C | 82% | 1012 hPa | 0 mm | 1.79 m/s, 175° | 0 W/m² | - |
| 1778036363 | 15.56° C | 82% | 1011.9 hPa | 0 mm | 2.68 m/s, 237° | 0 W/m² | - |
| 1778036060 | 16.11° C | 82% | 1012.1 hPa | 0 mm | 1.34 m/s, 263° | 0 W/m² | - |
| 1778035757 | 16.11° C | 82% | 1012 hPa | 0 mm | 2.68 m/s, 167° | 0 W/m² | - |
| 1778035454 | 16.11° C | 81% | 1011.8 hPa | 0 mm | 2.24 m/s, 246° | 0 W/m² | - |
| 1778035150 | 16.11° C | 81% | 1011.7 hPa | 0 mm | 2.24 m/s, 321° | 0 W/m² | - |
| 1778034847 | 16.11° C | 81% | 1011.6 hPa | 0 mm | 4.47 m/s, 297° | 0 W/m² | - |
| 1778034543 | 16.11° C | 81% | 1011.8 hPa | 0 mm | 3.13 m/s, 142° | 0 W/m² | - |
| 1778034241 | 16.11° C | 81% | 1011.7 hPa | 0 mm | 2.24 m/s, 202° | 0 W/m² | - |
| 1778033939 | 16.11° C | 80% | 1012 hPa | 0 mm | 1.79 m/s, 207° | 0 W/m² | - |
| 1778033636 | 16.11° C | 80% | 1011.9 hPa | 0 mm | 2.68 m/s, 206° | 0 W/m² | - |
| 1778033333 | 16.11° C | 79% | 1011.9 hPa | 0 mm | 1.79 m/s, 208° | 0 W/m² | - |
| 1778033031 | 16.11° C | 79% | 1011.8 hPa | 0 mm | 1.79 m/s, 240° | 0 W/m² | - |
| 1778032728 | 16.11° C | 78% | 1011.7 hPa | 0 mm | 3.58 m/s, 197° | 0 W/m² | - |
| 1778032425 | 16.11° C | 77% | 1011.9 hPa | 0 mm | 2.24 m/s, 167° | 0 W/m² | - |
| 1778032122 | 16.67° C | 76% | 1011.7 hPa | 0 mm | 1.79 m/s, 302° | 0 W/m² | - |
| 1778031819 | 16.67° C | 76% | 1011.8 hPa | 0 mm | 2.24 m/s, 191° | 0 W/m² | - |
| 1778031515 | 16.67° C | 75% | 1011.6 hPa | 0 mm | 1.79 m/s, 170° | 0 W/m² | - |
| 1778031213 | 16.67° C | 75% | 1011.7 hPa | 0 mm | 2.68 m/s, 236° | 0 W/m² | - |
| 1778030909 | 16.67° C | 74% | 1011.4 hPa | 0 mm | 1.79 m/s, 194° | 0 W/m² | - |
* Rain latest hour (hover to see other rain measurements)
** Current wind speed in m/s (hover to see current wind gust speed)